Weather History for KPBH - March, 2013

Change the Weather History Date:

Saturday, March 23, 2013

  Actual Average Record
Temperature  
Mean Temperature 25 °F -  
Max Temperature 35 °F 38 °F 64 °F (2012)
Min Temperature 15 °F 19 °F -9 °F (2014)
Degree Days  
Heating Degree Days 40    
Moisture  
Dew Point 20 °F    
Average Humidity 72    
Maximum Humidity 93    
Minimum Humidity 52    
Precipitation  
Precipitation 0.00 in - - ()
Sea Level Pressure  
Sea Level Pressure 30.09 in    
Wind  
Wind Speed 4 mph (NE)    
Max Wind Speed 10 mph    
Max Gust Speed -    
Visibility 10 miles    
Events      
Averages and records for this station are not official NWS values.
T = Trace of Precipitation, MM = Missing Value Source: NWS Daily Summary

Daily Weather History Graph

Daily Weather History Graph

Search for Another Location

Airport or City:

Trip Planner

Search our weather history database for the weather conditions in past years. The results will help you decide how hot, cold, wet, or windy it might be!

Date:

Astronomy

Mar. 23, 2013 Rise Set
Actual Time 6:58 AM CDT 7:18 PM CDT
Civil Twilight 6:28 AM CDT 7:48 PM CDT
Nautical Twilight 5:53 AM CDT 8:23 PM CDT
Astronomical Twilight 5:17 AM CDT 8:59 PM CDT
Moon 3:36 PM CDT (3/23) 4:45 AM CDT (3/23)
Length of Visible Light 13h 19m
Length of Day
12h 20m
Waxing Gibbous, 85% of the Moon is Illuminated
Mar 23
Waxing Gibbous
Mar 27
Full
Apr 2
Last Quarter
Apr 10
New
Apr 18
First Quarter

Hourly Weather History & Observations

Time (CDT) Temp. Windchill Dew Point Humidity Pressure Visibility Wind Dir Wind Speed Gust Speed Precip Events Conditions
12:15 AM 28.4 °F 24.6 °F 21.2 °F 74% 30.05 in 10.0 mi NE 3.5 mph - N/A   Overcast
12:35 AM 28.4 °F - 21.2 °F 74% 30.05 in 10.0 mi Calm Calm - N/A   Overcast
12:55 AM 28.4 °F - 21.2 °F 74% 30.06 in 10.0 mi Calm Calm - N/A   Overcast
1:15 AM 28.4 °F - 21.2 °F 74% 30.06 in 10.0 mi Calm Calm - N/A   Overcast
1:35 AM 28.4 °F 22.2 °F 21.2 °F 74% 30.06 in 10.0 mi NE 5.8 mph - N/A   Overcast
1:55 AM 28.4 °F 22.2 °F 21.2 °F 74% 30.07 in 10.0 mi NE 5.8 mph - N/A   Overcast
2:15 AM 28.4 °F 23.3 °F 21.2 °F 74% 30.07 in 10.0 mi NE 4.6 mph - N/A   Overcast
2:35 AM 28.4 °F 23.3 °F 21.2 °F 74% 30.06 in 10.0 mi NNE 4.6 mph - N/A   Overcast
2:55 AM 26.6 °F 19.1 °F 21.2 °F 80% 30.06 in 10.0 mi NE 6.9 mph - N/A   Overcast
3:15 AM 26.6 °F 21.2 °F 21.2 °F 80% 30.06 in 10.0 mi NE 4.6 mph - N/A   Overcast
3:35 AM 26.6 °F 18.2 °F 21.2 °F 80% 30.06 in 10.0 mi NE 8.1 mph - N/A   Overcast
3:55 AM 26.6 °F 19.1 °F 21.2 °F 80% 30.06 in 10.0 mi NNE 6.9 mph - N/A   Overcast
4:15 AM 24.8 °F 14.6 °F 19.4 °F 80% 30.06 in 10.0 mi NNE 10.4 mph - N/A   Overcast
4:35 AM 24.8 °F 14.6 °F 19.4 °F 80% 30.06 in 10.0 mi NE 10.4 mph - N/A   Scattered Clouds
4:55 AM 23.0 °F 13.9 °F 19.4 °F 86% 30.06 in 10.0 mi NNE 8.1 mph - N/A   Scattered Clouds
5:15 AM 23.0 °F 14.7 °F 19.4 °F 86% 30.06 in 10.0 mi NNE 6.9 mph - N/A   Overcast
5:35 AM 21.2 °F 12.6 °F 19.4 °F 93% 30.05 in 10.0 mi NNE 6.9 mph - N/A   Mostly Cloudy
6:15 AM 21.2 °F - 17.6 °F 86% 30.07 in 10.0 mi Calm Calm - N/A   Clear
6:35 AM 17.6 °F - 15.8 °F 93% 30.09 in 10.0 mi Calm Calm - N/A   Clear
6:55 AM 17.6 °F - 15.8 °F 93% 30.10 in 10.0 mi Calm Calm - N/A   Mostly Cloudy
7:15 AM 15.8 °F - 14.0 °F 93% 30.10 in 10.0 mi Calm Calm - N/A   Mostly Cloudy
7:35 AM 17.6 °F - 15.8 °F 93% 30.11 in 10.0 mi Calm Calm - N/A   Scattered Clouds
7:55 AM 15.8 °F - 14.0 °F 93% 30.12 in 10.0 mi Calm Calm - N/A   Scattered Clouds
8:15 AM 17.6 °F - 15.8 °F 93% 30.11 in 10.0 mi Calm Calm - N/A   Mostly Cloudy
8:35 AM 21.2 °F - 19.4 °F 93% 30.11 in 10.0 mi Calm Calm - N/A   Overcast
8:55 AM 24.8 °F 17.9 °F 19.4 °F 80% 30.11 in 10.0 mi ENE 5.8 mph - N/A   Overcast
9:15 AM 24.8 °F 17.9 °F 19.4 °F 80% 30.11 in 10.0 mi ENE 5.8 mph - N/A   Overcast
9:35 AM 26.6 °F 20.0 °F 21.2 °F 80% 30.11 in 10.0 mi ENE 5.8 mph - N/A   Overcast
9:55 AM 26.6 °F 22.6 °F 21.2 °F 80% 30.13 in 10.0 mi NNE 3.5 mph - N/A   Overcast
10:15 AM 26.6 °F 22.6 °F 21.2 °F 80% 30.13 in 10.0 mi NE 3.5 mph - N/A   Overcast
10:35 AM 26.6 °F 21.2 °F 21.2 °F 80% 30.12 in 10.0 mi East 4.6 mph - N/A   Overcast
10:55 AM 28.4 °F 22.2 °F 21.2 °F 74% 30.11 in 10.0 mi ENE 5.8 mph - N/A   Overcast
11:15 AM 28.4 °F - 21.2 °F 74% 30.13 in 10.0 mi Calm Calm - N/A   Overcast
11:35 AM 28.4 °F 24.6 °F 19.4 °F 69% 30.13 in 10.0 mi NE 3.5 mph - N/A   Overcast
11:55 AM 28.4 °F 22.2 °F 21.2 °F 74% 30.12 in 10.0 mi North 5.8 mph - N/A   Overcast
12:15 PM 30.2 °F 22.6 °F 19.4 °F 64% 30.11 in 10.0 mi North 8.1 mph - N/A   Overcast
12:35 PM 30.2 °F 24.3 °F 19.4 °F 64% 30.11 in 10.0 mi NNE 5.8 mph - N/A   Overcast
12:55 PM 30.2 °F 24.3 °F 19.4 °F 64% 30.11 in 10.0 mi NNW 5.8 mph - N/A   Overcast
1:15 PM 30.2 °F 23.4 °F 19.4 °F 64% 30.10 in 10.0 mi NE 6.9 mph - N/A   Mostly Cloudy
1:35 PM 32.0 °F 26.4 °F 21.2 °F 64% 30.10 in 10.0 mi ENE 5.8 mph - N/A   Mostly Cloudy
1:55 PM 32.0 °F 27.5 °F 19.4 °F 60% 30.10 in 10.0 mi North 4.6 mph - N/A   Mostly Cloudy
2:15 PM 33.8 °F 27.7 °F 21.2 °F 60% 30.10 in 10.0 mi North 6.9 mph - N/A   Scattered Clouds
2:35 PM 33.8 °F 29.6 °F 21.2 °F 60% 30.09 in 10.0 mi NNE 4.6 mph - N/A   Mostly Cloudy
2:55 PM 33.8 °F 30.8 °F 19.4 °F 56% 30.09 in 10.0 mi NNE 3.5 mph - N/A   Scattered Clouds
3:15 PM 33.8 °F - 19.4 °F 56% 30.08 in 10.0 mi Calm Calm - N/A   Clear
3:35 PM 35.6 °F 32.8 °F 19.4 °F 52% 30.08 in 10.0 mi East 3.5 mph - N/A   Scattered Clouds
3:55 PM 35.6 °F - 19.4 °F 52% 30.07 in 10.0 mi Calm Calm - N/A   Mostly Cloudy
4:15 PM 35.6 °F 31.7 °F 19.4 °F 52% 30.07 in 10.0 mi NNE 4.6 mph - N/A   Mostly Cloudy
4:35 PM 35.6 °F 30.7 °F 21.2 °F 56% 30.06 in 10.0 mi NE 5.8 mph - N/A   Scattered Clouds
4:55 PM 35.6 °F 28.6 °F 21.2 °F 56% 30.06 in 10.0 mi NE 9.2 mph - N/A   Clear
5:15 PM 35.6 °F - 21.2 °F 56% 30.07 in 10.0 mi Calm Calm - N/A   Scattered Clouds
5:35 PM 35.6 °F 28.0 °F 21.2 °F 56% 30.07 in 10.0 mi NNE 10.4 mph - N/A   Mostly Cloudy
5:55 PM 33.8 °F 25.8 °F 21.2 °F 60% 30.07 in 10.0 mi NNE 10.4 mph - N/A   Mostly Cloudy
6:15 PM 33.8 °F 27.0 °F 21.2 °F 60% 30.07 in 10.0 mi NE 8.1 mph - N/A   Scattered Clouds
6:35 PM 33.8 °F 26.4 °F 21.2 °F 60% 30.07 in 10.0 mi NNE 9.2 mph - N/A   Clear
6:55 PM 32.0 °F 24.8 °F 21.2 °F 64% 30.07 in 10.0 mi NNE 8.1 mph - N/A   Clear
7:15 PM 32.0 °F 25.6 °F 21.2 °F 64% 30.08 in 10.0 mi NE 6.9 mph - N/A   Mostly Cloudy
7:35 PM 32.0 °F 27.5 °F 21.2 °F 64% 30.08 in 10.0 mi NE 4.6 mph - N/A   Overcast
7:55 PM 30.2 °F 23.4 °F 21.2 °F 69% 30.08 in 10.0 mi NE 6.9 mph - N/A   Mostly Cloudy
8:15 PM 30.2 °F - 21.2 °F 69% 30.10 in 10.0 mi Calm Calm - N/A   Mostly Cloudy
8:35 PM 30.2 °F 25.4 °F 23.0 °F 75% 30.09 in 10.0 mi NNE 4.6 mph - N/A   Overcast
8:55 PM 30.2 °F 23.4 °F 21.2 °F 69% 30.09 in 10.0 mi NNE 6.9 mph - N/A   Overcast
9:15 PM 30.2 °F 25.4 °F 21.2 °F 69% 30.10 in 10.0 mi North 4.6 mph - N/A   Overcast
9:35 PM 30.2 °F 24.3 °F 21.2 °F 69% 30.10 in 10.0 mi North 5.8 mph - N/A   Overcast
9:55 PM 30.2 °F 26.7 °F 21.2 °F 69% 30.09 in 10.0 mi North 3.5 mph - N/A   Overcast
10:15 PM 28.4 °F 23.3 °F 21.2 °F 74% 30.09 in 10.0 mi NNE 4.6 mph - N/A   Mostly Cloudy
10:35 PM 28.4 °F - 21.2 °F 74% 30.10 in 10.0 mi Calm Calm - N/A   Mostly Cloudy
10:55 PM 28.4 °F - 21.2 °F 74% 30.10 in 10.0 mi Calm Calm - N/A   Overcast
11:15 PM 28.4 °F 23.3 °F 21.2 °F 74% 30.10 in 10.0 mi NE 4.6 mph - N/A   Overcast
11:35 PM 30.2 °F 24.3 °F 21.2 °F 69% 30.09 in 10.0 mi NE 5.8 mph - N/A   Overcast
11:55 PM 30.2 °F 23.4 °F 21.2 °F 69% 30.09 in 10.0 mi NE 6.9 mph - N/A   Overcast